Weather in Granada

Nicaragua     11°55′59″N   85°57′51″W
temp.,
°C
wind,
m/s
gust,
m/s
humid.,
%
clouds,
%
prec.,
mm/h
press.,
hPa
HPBL,
m
1 march, mon
mon100:00+23e3118390 0.2 1012803
03:00+22ene3118587 0.1 1010672
06:00+22e4118188 0.1 1011683
09:00+28ene7125440 0.0 10121595
12:00+33e7113338 0.1 10112099
15:00+34e811320 0.0 10072361
18:00+29e610472 0.0 10091186
21:00+24e411720 0.0 1012949
2 march, tue
tue200:00+23e310806 0.0 1012706
03:00+22e39876 0.1 1011488
06:00+22e3108624 0.1 1011726
09:00+28ene7115479 0.1 10131579
12:00+34e7113388 0.1 10112212
15:00+34e8113281 0.0 10082449
18:00+27ene6115768 0.0 10101325
21:00+24e5117173 0.0 1012963
3 march, wed
wed300:00+23e4117980 0.0 1013792
03:00+21ene31085100 0.0 1012611
06:00+20ene139299 0.0 1013146
09:00+29ene6104836 0.0 10151561
12:00+31e6104342 0.0 10121925
15:00+34e7103029 0.0 10092448
18:00+29e6103915 0.0 1010983
21:00+25ene411610 0.0 1013656
4 march, thu
thu400:00+22e39810 0.0 1014457
03:00+21e39861 0.0 1013446
06:00+21ene28881 0.0 1014359
09:00+28ene610511 0.0 10161405
12:00+33ene710320 0.0 10122165
15:00+34ene79290 0.0 10102445
18:00+29ene59440 0.0 1010913
21:00+25e410600 0.0 1013621
5 march, fri
fri500:00+23e39700 0.0 1013477
03:00+21e39770 0.0 1012490
06:00+20e310830 0.0 1012469
09:00+28ene59450 0.0 10141056
12:00+33e68260 0.0 10111933
15:00+33ese57280 0.0 10081772
18:00+28e410410 0.0 1009470
21:00+25ese511571 0.0 1011475